Heure de lever du soleil au 17-08-2018 / 228 ° de l'année/ semaine 3306 h 44 Heure de coucher du soleil au 17-08-2018 / 228 ° de l'année/ semaine 3321 h 04

Compte Facebook Association Météo Centre     Compte Twitter Association Météo Centre - @AssoMétéoCentre     Chaîne Youtube Association Météo Centre     Bouton contact Association Météo Centre 

Gif alerte météo

Choix de la station :
Période à consulter :
Aujourd'hui


 

Conditions météo à Abbeville - Altitude 77m

  

Date du relevé28/03/2018 à 09:00
Visibilité8km
Vent6 km/h SSE
Température6.6 °C
Humidité92 %
Point de rosée5.4 °C
Pression absolue995.5 hPa
Pression relative1004.2 hPa
Variation pression-3 hPa stationnaire ou en hausse puis en baisse, puis en baisse plus rapide
Temps présentPluie faible et continue, non verglaçante.


Historique météo des dernières 24 heures à Abbeville


Date - Heure Base des nuages Visibilité Nébulosité Vent Température Humidité Point rosée Pression Précipitations Temps
28/03 09:00 8km 6 km/h SSE 6.6 °C 92 % 5.4 °C 1004.2 hPa
28/03 08:00 19km 4 km/h SSE 6.3 °C 90.1 % 4.8 °C 1005.5 hPa 0 mm/12h
28/03 07:00 19km 4 km/h S 6.2 °C 90.1 % 4.7 °C 1006.6 hPa
28/03 06:00 18km 4 km/h SSO 5.8 °C 90.7 % 4.4 °C 1007.3 hPa
28/03 05:00 18km 6 km/h SO 6.2 °C 88.9 % 4.5 °C 1007.9 hPa
28/03 04:00 18km 9 km/h OSO 7 °C 87.1 % 5 °C 1008.8 hPa
28/03 03:00 19km 11 km/h OSO 7.5 °C 85.9 % 5.3 °C 1009 hPa
28/03 02:00 20km 13 km/h O 7.8 °C 84.8 % 5.4 °C 1009.3 hPa 0 mm/6h
28/03 01:00 20km 15 km/h O 8.1 °C 83.1 % 5.4 °C 1008.9 hPa
28/03 00:00 20km 15 km/h O 8.2 °C 83.1 % 5.5 °C 1008.8 hPa
27/03 23:00 20km 15 km/h O 8.3 °C 83.1 % 5.6 °C 1008.6 hPa
27/03 22:00 20km 17 km/h O 8.6 °C 83.1 % 5.9 °C 1008.3 hPa
27/03 21:00 20km 17 km/h O 8.6 °C 84.9 % 6.2 °C 1007.8 hPa
27/03 20:00 16km 19 km/h O 9.1 °C 89.1 % 7.4 °C 1007.3 hPa traces/12h
27/03 19:00 11km 19 km/h O 9.4 °C 89.7 % 7.8 °C 1006.6 hPa
27/03 18:00 6km 15 km/h O 9.2 °C 96 % 8.6 °C 1006.5 hPa
27/03 17:00 5000m 20 km/h O 9.6 °C 94.8 % 8.8 °C 1006.5 hPa
27/03 16:00 9km 17 km/h O 9.8 °C 94.1 % 8.9 °C 1006.6 hPa
27/03 15:00 6km 17 km/h O 10 °C 94.8 % 9.2 °C 1006.6 hPa
27/03 14:00 3800m 6 km/h SO 8.8 °C 96.7 % 8.3 °C 1007 hPa traces/6h
27/03 13:00 4000m 7 km/h S 7.2 °C 96 % 6.6 °C 1007.9 hPa
27/03 12:00 6km 9 km/h SSE 6.5 °C 95.3 % 5.8 °C 1008.7 hPa
27/03 11:00 5000m 9 km/h SSE 5.8 °C 19.9 % -15.5 °C 1009.4 hPa
27/03 10:00 4100m 9 km/h SSE 5.3 °C 93.3 % 4.3 °C 1010.3 hPa

L'association Météo Centre n'est pas responsable de la mise à jour de ces données.



Météo-Centre.fr depuis 2008
Nos informations ne doivent jamais servir à la protection des biens et des personnes. Elles n'engagent pas la responsabilité de l'association Météo Centre.
Contact - Haut de page - Partenaires - Mentions légales